Probability
0 0 0 0 0 0 0 0 0 0 0 0 0 0 0 0 0 0 0 0 0 0 0 0 0 0 0 0 0 0 0 0 0 0 0 0 0 0 0 0 0 0 0 0
0 0 0 0 0 0 0 0 0 0 0 0 0 0 0 0 0 0 0 0 0 0 0 0 0 0 0 0 0 0 0 0 0 0 0 0 0 0 0 0 0 0 0 0
0 0 0 0 0 0 0 0 0 0 0 0 0 0 0 0 0 0 0 0 0 0 0 0 0 0 0 0 0 0 0 0 0 0 0 0 0 0 0 0 0 0 0 0
0 0 0 0 0 0 0 0 0 0 0 0 0 0 0 0 0 0 0 0 0 0 0 0 0 0 0 0 0 0 0 0 0 0 0 0 0 0 0 0 0 0 0 0
0 0 0 0 0 0 0 0 0 0 0 0 0 0 0 0 0 0 0 0 0 0 0 0 0 0 0 0 0 0 0 0 0 0 0 0 0 0 0 0 0 0 0 0
0 0 0 0 0 0 0 0 0 0 0 0 0 0 0 0 0 0 0 0 0 0 0 0 0 0 0 0 0 0 0 0 0 0 0 0 0 0 0 0 0 0 0 0
0 0 0 0 0 0 0 0 0 0 0 0 0 0 0 0 0 0 0 0 0 0 0 0 0 0 0 0 0 0 0 0 0 0 0 0 0 0 0 0 0 0 0 0
0 0 0 0 0 0 0 0 0 0 0 0 0 0 0 0 0 0 0 0 0 0 0 0 0 0 0 0 0 0 0 0 0 0 0 0 0 0 0 0 0 0 0 0
0 0 0 0 0 0 0 0 0 0 0 0 0 0 0 0 0 0 0 0 0 0 0 0 0 0 0 0 0 0 0 0 0 0 0 0 0 0 0 0 0 0 0 0
0 0 0 0 0 0 0 0 0 0 0 0 0 0 0 0 0 0 0 0 0 0 0 0 0 0 0 0 0 0 0 0 0 0 0 0 0 0 0 0 0 0 0 0
0 0 0 0 0 0 0 0 0 0 0 0 0 0 0 0 0 0 0 0 0 0 0 0 0 0 0 0 0 0 0 0 0 0 0 0 0 0 0 0 0 0 0 0
0 0 0 0 0 0 0 0 0 0 0 0 0 0 0 0 0 0 0 0 0 0 0 0 0 0 0 0 0 0 0 0 0 0 0 0 0 0 0 0 0 0 0 0
0 0 0 0 0 0 0 0 0 0 0 0 0 0 0 0 0 0 0 0 0 0 0 0 0 0 0 0 0 0 0 0 0 0 0 0 0 0 0 0 0 0 0 0
0 0 0 0 0 0 0 0 0 0 0 0 0 0 0 0 0 0 0 0 0 0 0 0 0 0 0 0 0 0 0 0 0 0 0 0 0 0 0 0 0 0 0 0
0 0 0 0 0 0 0 0 0 0 0 0 0 0 0 0 0 0 0 0 0 0 0 0 0 0 0 0 0 0 0 0 0 0 0 0 0 0 0 0 0 0 0 0
0 0 0 0 0 0 0 0 0 0 0 0 0 0 0 0 0 0 0 0 0 0 0 0 0 0 0 0 0 0 0 0 0 0 0 0 0 0 0 0 0 0 0 0
0 0 0 0 0 0 0 0 0 0 0 0 0 0 0 0 0 0 0 0 0 0 0 0 0 0 0 0 0 0 0 0 0 0 0 0 0 0 0 0 0 0 0 0
0 0 0 0 0 0 0 0 0 0 0 0 0 0 0 0 0 0 0 0 0 0 0 0 0 0 0 0 0 0 0 0 0 0 0 0 0 0 0 0 0 0 0 0
0 0 0 0 0 0 0 0 0 0 0 0 0 0 0 0 0 0 0 0 0 0 0 0 0 0 0 0 0 0 0 0 0 0 0 0 0 0 0 0 0 0 0 0
0 0 0 0 0 0 0 0 0 0 0 0 0 0 0 0 0 0 0 0 0 0 0 0 0 0 0 0 0 0 0 0 0 0 0 0 0 0 0 0 0 0 0 0
0 0 0 0 0 0 0 0 0 0 0 0 0 0 0 0 0 0 0 0 0 0 0 0 0 0 0 0 0 0 0 0 0 0 0 0 0 0 0 0 0 0 0 0
0 0 0 0 0 0 0 0 0 0 0 0 0 0 0 0 0 0 0 0 0 0 0 0 0 0 0 0 0 0 0 0 0 0 0 0 0 0 0 0 0 0 0 0
0 0 0 0 0 0 0 0 0 0 0 0 0 0 0 0 0 0 0 0 0 0 0 0 0 0 0 0 0 0 0 0 0 0 0 0 0 0 0 0 0 0 0 0
0 0 0 0 0 0 0 0 0 0 0 0 0 0 0 0 0 0 0 0 0 0 0 0 0 0 0 0 0 0 0 0 0 0 0 0 0 0 0 0 0 0 0 0
0 0 0 0 0 0 0 0 0 0 0 0 0 0 0 0 0 0 0 0 0 0 0 0 0 0 0 0 0 0 0 0 0 0 0 0 0 0 0 0 0 0 0 0
0 0 0 0 0 0 0 0 0 0 0 0 0 0 0 0 0 0 0 0 0 0 0 0 0 0 0 0 0 0 0 0 0 0 0 0 0 0 0 0 0 0 0 0
0 0 0 0 0 0 0 0 0 0 0 0 0 0 0 0 0 0 0 0 0 0 0 0 0 0 0 0 0 0 0 0 0 0 0 0 0 0 0 0 0 0 0 0
Height
5668 5671 5673 5674 5676 5677 5677 5679 5680 5683 5684 5687 5686 5685 5686 5687 5688 5689 5690 5691 5691 5691 5691 5691 5690 5689 5688 5687 5686 5684 5682 5679 5677 5673 5670 5666 5663 5658 5654 5649 5645 5640 5635 5630
5660 5663 5664 5665 5667 5669 5671 5672 5673 5675 5677 5679 5677 5677 5678 5679 5680 5681 5682 5682 5682 5682 5682 5682 5681 5680 5679 5677 5676 5673 5671 5668 5665 5662 5658 5654 5650 5646 5641 5637 5632 5627 5622 5617
5653 5655 5655 5656 5662 5664 5665 5666 5667 5667 5671 5670 5670 5670 5671 5672 5672 5673 5673 5673 5673 5673 5673 5673 5672 5671 5669 5667 5665 5663 5660 5657 5654 5650 5646 5642 5638 5633 5629 5624 5619 5614 5609 5603
5643 5646 5646 5655 5657 5657 5658 5659 5660 5661 5662 5663 5663 5663 5663 5664 5664 5665 5665 5665 5665 5664 5664 5663 5662 5661 5659 5657 5654 5652 5649 5646 5642 5638 5634 5630 5625 5621 5616 5611 5606 5601 5595 5589
5635 5637 5640 5646 5650 5651 5651 5652 5654 5654 5654 5655 5654 5654 5656 5656 5656 5656 5656 5656 5656 5655 5654 5653 5652 5650 5648 5646 5643 5641 5637 5634 5630 5626 5622 5617 5613 5608 5603 5598 5593 5587 5581 5575
5627 5630 5633 5642 5644 5644 5644 5645 5648 5646 5646 5646 5646 5647 5649 5648 5647 5647 5647 5647 5646 5646 5645 5643 5642 5640 5638 5635 5632 5629 5626 5622 5618 5614 5609 5605 5600 5595 5590 5584 5579 5573 5567 5560
5621 5623 5627 5634 5636 5637 5638 5641 5640 5638 5639 5639 5639 5640 5641 5640 5640 5639 5638 5638 5637 5636 5635 5633 5631 5629 5627 5624 5621 5617 5614 5610 5605 5601 5597 5592 5587 5582 5576 5571 5565 5559 5553 5546
5613 5615 5623 5627 5627 5629 5630 5630 5631 5631 5632 5632 5632 5632 5632 5631 5631 5630 5630 5629 5627 5626 5625 5623 5621 5618 5616 5613 5609 5606 5602 5597 5593 5588 5584 5579 5573 5568 5562 5556 5550 5543 5537 5530
5607 5612 5616 5617 5619 5620 5621 5622 5623 5623 5624 5624 5624 5624 5624 5623 5622 5621 5620 5619 5618 5616 5614 5612 5610 5607 5604 5601 5598 5594 5590 5585 5580 5576 5570 5565 5559 5553 5547 5540 5534 5527 5520 5513
5599 5603 5606 5608 5610 5611 5613 5614 5614 5615 5616 5616 5616 5615 5615 5614 5613 5612 5611 5609 5608 5606 5604 5602 5599 5596 5593 5590 5586 5582 5577 5573 5568 5562 5557 5551 5545 5538 5532 5525 5517 5510 5502 5494
5590 5595 5597 5600 5602 5603 5604 5605 5606 5607 5607 5607 5607 5607 5606 5605 5604 5603 5601 5600 5598 5596 5593 5591 5588 5585 5582 5578 5574 5570 5565 5560 5554 5549 5543 5537 5531 5524 5516 5509 5499 5491 5483 5473
5584 5588 5590 5592 5593 5594 5596 5597 5597 5598 5598 5598 5598 5597 5597 5596 5594 5593 5591 5589 5587 5585 5582 5580 5577 5573 5570 5566 5562 5557 5552 5546 5541 5535 5529 5522 5516 5510 5501 5492 5484 5473 5462 5451
5575 5578 5580 5583 5585 5586 5587 5588 5589 5589 5589 5589 5589 5588 5587 5586 5585 5583 5581 5579 5577 5574 5571 5568 5565 5561 5557 5553 5549 5544 5538 5533 5527 5520 5514 5507 5499 5492 5486 5478 5468 5456 5444 5432
5566 5569 5571 5574 5576 5577 5578 5579 5580 5580 5580 5580 5579 5579 5578 5576 5575 5573 5571 5569 5566 5563 5560 5557 5553 5549 5545 5540 5535 5530 5524 5518 5512 5505 5498 5490 5482 5474 5465 5457 5450 5441 5428 5413
5558 5561 5563 5565 5567 5569 5570 5571 5571 5571 5571 5570 5570 5569 5568 5566 5564 5563 5560 5558 5555 5552 5549 5545 5541 5536 5532 5527 5522 5516 5510 5503 5496 5489 5481 5473 5464 5455 5445 5436 5426 5417 5408 5396
5549 5552 5555 5557 5559 5560 5561 5562 5562 5562 5562 5561 5560 5559 5558 5556 5554 5552 5550 5547 5544 5540 5536 5532 5528 5523 5518 5513 5507 5501 5495 5488 5480 5473 5464 5455 5445 5435 5425 5414 5404 5394 5384 5373
5542 5544 5547 5549 5551 5552 5552 5553 5553 5553 5552 5551 5550 5549 5548 5546 5543 5541 5538 5535 5532 5528 5524 5520 5515 5510 5504 5499 5493 5486 5479 5472 5463 5454 5445 5435 5425 5414 5404 5393 5382 5372 5363 5352
5534 5537 5539 5541 5542 5543 5543 5544 5543 5543 5543 5542 5540 5539 5537 5535 5533 5530 5527 5523 5520 5516 5511 5507 5502 5496 5490 5484 5477 5470 5463 5455 5446 5436 5426 5415 5404 5393 5382 5371 5361 5351 5342 5333
5526 5529 5531 5532 5533 5534 5534 5534 5534 5534 5533 5531 5530 5528 5526 5524 5521 5518 5515 5511 5508 5504 5499 5493 5488 5482 5475 5468 5461 5453 5445 5436 5426 5416 5405 5394 5383 5372 5361 5351 5340 5331 5321 5313
5519 5521 5522 5524 5525 5525 5525 5525 5524 5524 5523 5521 5520 5518 5515 5513 5510 5507 5503 5499 5495 5491 5485 5480 5474 5467 5460 5452 5444 5435 5425 5415 5405 5395 5384 5373 5362 5352 5341 5330 5320 5311 5303 5295
5511 5513 5514 5515 5516 5516 5516 5515 5514 5514 5512 5511 5509 5507 5504 5501 5498 5495 5491 5487 5482 5477 5471 5465 5458 5451 5443 5435 5426 5416 5405 5395 5384 5373 5363 5352 5341 5331 5321 5311 5302 5293 5286 5279
5503 5504 5505 5506 5506 5506 5506 5505 5504 5503 5502 5500 5498 5495 5493 5490 5486 5482 5478 5473 5468 5463 5456 5449 5441 5433 5425 5416 5406 5396 5385 5374 5363 5352 5341 5331 5320 5311 5302 5293 5285 5277 5270 5264
5494 5495 5496 5497 5497 5496 5496 5495 5494 5492 5491 5489 5486 5484 5481 5478 5474 5470 5466 5460 5454 5448 5441 5432 5424 5415 5406 5396 5386 5375 5364 5353 5342 5331 5321 5311 5301 5292 5284 5277 5269 5262 5256 5251
5485 5486 5487 5487 5487 5486 5486 5484 5483 5481 5480 5477 5475 5472 5469 5465 5461 5456 5451 5445 5438 5431 5424 5415 5405 5396 5386 5376 5365 5355 5344 5333 5322 5312 5302 5293 5285 5276 5269 5262 5255 5249 5243 5238
5476 5476 5477 5477 5477 5476 5475 5474 5472 5471 5468 5466 5463 5460 5456 5452 5448 5442 5436 5429 5422 5414 5406 5396 5386 5376 5366 5355 5345 5335 5324 5314 5304 5295 5286 5278 5269 5262 5255 5248 5242 5237 5232 5228
5466 5467 5467 5467 5466 5466 5464 5463 5462 5459 5457 5454 5451 5447 5443 5438 5433 5427 5420 5413 5404 5396 5387 5377 5367 5357 5346 5336 5326 5316 5307 5298 5289 5280 5271 5263 5255 5248 5241 5235 5230 5226 5222 5219
5456 5457 5457 5457 5456 5455 5454 5452 5450 5448 5445 5442 5438 5434 5429 5423 5417 5411 5403 5395 5387 5377 5368 5358 5348 5338 5328 5318 5309 5300 5291 5283 5275 5267 5259 5251 5244 5237 5230 5225 5221 5217 5214 5211
Wind_Speed
34 32 32 32 33 33 35 35 35 31 30 25 26 30 31 32 32 33 33 34 34 35 35 36 36 37 38 39 40 41 42 44 45 46 48 49 50 51 52 52 53 53 53 54
34 33 33 34 33 33 33 32 31 30 27 24 27 30 30 30 31 32 33 34 35 36 36 36 37 38 39 40 41 42 43 44 46 47 49 50 50 51 52 52 52 53 53 54
34 33 35 35 29 29 30 29 29 29 25 26 28 30 30 31 32 32 33 34 35 36 37 37 37 38 39 40 42 43 44 45 47 48 49 50 50 51 51 52 52 53 55 56
35 36 38 30 27 27 28 29 29 29 27 27 28 29 30 30 31 32 33 34 35 35 36 37 37 38 40 41 42 43 44 46 47 49 49 49 50 50 51 53 54 55 55 56
37 38 36 31 26 25 28 28 27 28 27 27 29 30 29 30 32 32 33 34 34 35 36 37 38 39 40 41 43 44 46 47 47 48 48 49 50 51 53 54 54 55 56 58
38 38 36 28 26 26 29 27 24 27 28 29 29 30 28 30 31 32 33 34 35 36 37 38 38 40 41 42 43 45 46 46 47 47 48 49 51 52 53 55 56 57 58 60
36 36 33 28 26 27 29 25 25 28 28 29 29 29 29 30 31 32 34 35 36 37 38 39 40 41 42 43 44 45 46 46 47 48 49 50 52 53 55 56 57 59 60 61
34 36 31 27 28 28 28 29 29 29 29 29 30 30 30 31 32 32 34 35 36 37 38 40 41 42 42 43 44 45 46 46 47 49 50 51 53 55 56 58 59 60 62 63
36 34 31 31 30 30 30 30 30 30 30 30 31 31 32 32 33 34 35 36 37 37 39 40 41 42 43 43 44 45 46 47 48 50 51 53 55 56 58 60 61 63 65 67
36 35 34 32 32 32 32 32 32 32 32 31 31 32 33 33 34 35 35 36 37 38 39 40 41 41 42 43 44 45 47 48 49 51 53 55 56 58 60 62 64 66 69 72
37 35 34 34 33 34 34 34 33 33 33 33 33 33 34 34 34 35 36 37 38 39 40 40 40 41 42 44 45 47 48 49 51 53 54 56 58 60 62 64 68 71 73 76
36 34 35 34 35 35 34 34 34 34 34 34 34 34 34 34 35 36 37 38 38 39 40 41 41 42 44 45 46 48 49 51 53 55 57 59 60 62 65 68 71 74 77 80
36 35 35 35 34 34 34 34 35 35 35 35 35 34 34 35 36 37 37 38 39 40 41 42 43 44 45 46 48 49 51 53 55 57 59 61 64 66 68 71 74 77 80 82
35 35 35 34 34 34 34 34 34 34 34 34 34 35 35 36 36 37 38 39 40 41 42 43 44 45 47 48 50 51 53 55 57 60 62 65 68 71 74 76 77 78 81 83
35 35 34 34 34 34 34 34 34 34 34 34 34 35 35 36 37 38 39 40 41 42 43 44 46 47 49 50 52 54 56 58 60 63 66 69 72 75 78 80 82 82 81 81
34 34 33 33 33 33 33 33 33 33 33 34 34 35 36 37 38 38 39 40 42 43 44 46 47 49 50 52 54 56 58 61 64 67 70 74 77 79 81 83 83 82 80 79
33 32 32 32 32 31 31 32 32 33 33 34 35 36 37 38 38 39 41 42 43 44 46 47 49 50 52 54 57 59 62 65 68 72 75 78 80 82 82 82 81 80 78 77
32 31 31 31 30 30 30 30 31 31 33 34 35 36 37 38 39 40 41 42 44 45 47 49 50 52 55 57 60 63 66 69 73 76 79 81 82 82 82 81 80 79 76 73
30 30 30 30 30 30 30 31 32 33 34 35 35 36 37 38 39 40 41 43 45 47 48 50 52 55 58 61 64 68 71 74 77 80 81 82 81 81 81 80 78 75 71 67
29 29 29 29 29 30 31 31 32 33 34 35 36 37 38 39 40 41 43 45 47 49 51 53 56 59 62 66 69 73 76 78 80 81 81 81 81 80 78 76 73 69 64 60
28 28 29 29 30 31 31 32 33 34 35 36 37 38 39 40 41 43 45 47 49 51 54 56 60 63 67 70 73 76 78 80 81 81 81 80 79 76 73 69 66 62 58 55
29 29 30 30 31 31 32 33 34 35 35 36 38 39 40 41 43 45 47 49 52 54 57 61 64 68 71 74 76 78 80 80 80 80 79 76 73 70 66 63 60 57 53 50
30 30 31 31 32 32 33 34 35 36 37 38 39 40 42 44 45 47 49 52 55 58 62 65 69 72 74 76 78 79 79 79 78 76 73 70 67 63 60 57 54 51 48 45
31 31 32 32 33 34 34 35 36 37 38 39 41 42 44 46 48 51 53 56 59 63 66 69 71 74 76 78 78 78 77 76 73 69 66 63 61 58 55 52 49 46 42 39
31 32 32 33 33 34 35 36 36 38 39 41 43 44 46 48 51 53 56 60 63 66 69 71 73 76 77 77 76 75 72 69 66 63 61 58 55 53 50 47 44 40 37 35
31 32 32 33 33 34 35 36 37 39 40 42 44 46 49 51 54 57 60 64 67 69 71 73 74 75 75 74 72 69 65 62 59 57 55 52 50 48 45 41 39 36 33 31
31 31 32 33 34 34 35 37 38 40 42 43 46 49 52 55 58 61 64 66 69 70 72 73 73 72 71 68 65 61 58 56 54 51 49 47 45 42 38 35 33 30 29 27
Wind_Direction
244 246 247 250 251 253 256 261 264 267 266 265 262 261 261 261 260 258 258 259 261 264 266 268 270 273 275 277 279 280 282 284 286 288 290 292 293 294 295 295 296 297 297 297
244 246 248 249 250 253 258 263 266 267 266 263 260 261 262 263 263 262 262 262 263 265 267 270 272 274 277 279 280 282 284 286 288 290 292 293 294 295 295 296 297 297 298 299
243 244 247 248 252 256 260 262 265 265 264 261 262 264 265 266 266 267 266 267 268 269 271 272 275 277 279 281 283 284 286 288 290 292 293 294 294 295 296 297 298 298 299 299
240 242 246 251 252 256 259 261 263 265 264 264 265 264 265 267 268 269 270 270 271 273 275 276 278 280 282 284 285 287 289 290 292 293 294 294 295 296 297 298 299 299 300 300
240 243 248 250 255 258 260 260 261 264 265 265 265 266 267 269 270 271 273 275 275 276 277 279 281 283 284 286 287 289 290 292 293 294 294 295 296 297 298 299 299 300 301 301
241 245 249 252 255 257 259 261 263 263 263 264 267 269 270 271 272 273 274 276 277 278 279 281 283 284 286 287 289 290 292 293 294 294 295 296 297 298 298 299 300 301 301 302
244 247 250 254 256 257 259 263 259 259 262 266 269 272 273 274 275 276 276 277 279 280 281 283 284 286 287 289 290 292 293 294 294 295 296 297 297 298 299 300 301 301 302 302
243 246 250 257 259 258 259 258 260 263 265 268 271 275 276 277 278 278 278 279 280 281 283 284 286 287 289 290 292 293 294 294 295 296 297 298 299 300 300 301 302 302 302 303
244 249 252 253 257 259 259 261 263 265 267 270 273 275 277 278 279 279 280 281 282 283 284 286 287 289 290 292 293 294 295 295 296 297 298 299 300 301 301 302 302 303 303 304
244 247 250 252 255 258 261 262 264 267 269 271 274 276 278 279 280 281 282 282 284 285 287 288 289 290 292 293 294 295 296 296 297 298 299 300 301 302 302 303 303 304 304 305
244 246 249 252 255 258 260 263 266 268 271 273 275 277 279 280 281 282 283 284 286 287 288 289 290 292 293 294 295 296 297 297 298 299 300 300 301 302 303 304 304 305 305 306
244 247 249 251 255 258 261 264 267 270 272 275 278 279 280 281 282 283 284 286 287 288 290 291 292 293 294 296 297 297 298 298 299 300 301 301 302 303 304 305 305 306 307 307
244 246 250 253 256 259 263 266 269 272 274 277 279 280 281 283 283 284 286 287 289 290 291 292 293 294 296 297 298 298 298 299 300 301 302 302 303 303 304 305 306 307 307 307
246 248 250 253 256 259 264 268 271 274 276 278 279 281 282 283 284 285 287 288 290 291 292 293 294 296 297 298 298 299 300 300 301 302 303 303 304 304 305 306 306 307 307 307
246 248 251 253 257 261 265 269 272 275 277 278 279 281 283 284 286 287 288 289 291 292 293 294 296 297 298 299 299 300 301 302 302 303 304 304 305 305 306 306 307 307 307 307
245 248 252 255 259 263 266 270 272 275 276 277 279 282 283 285 286 287 288 290 291 292 294 295 297 298 298 299 300 301 302 302 303 304 304 305 306 306 307 307 307 307 307 307
247 251 255 258 261 264 267 270 272 273 275 277 280 283 284 286 287 288 289 291 292 293 295 296 297 298 299 300 301 302 302 303 304 305 306 306 307 307 307 307 307 307 308 308
249 253 256 259 262 265 268 270 272 274 277 280 282 284 285 286 288 289 290 292 293 294 296 297 298 299 300 301 302 302 303 304 305 306 306 307 307 307 307 307 308 308 308 308
250 253 256 260 263 267 269 272 274 276 279 281 283 285 286 287 289 290 292 293 294 295 297 298 299 300 301 302 303 303 304 305 306 306 307 307 307 308 308 307 307 307 307 307
251 254 257 261 264 268 271 273 275 278 280 282 284 285 287 288 290 291 293 294 295 297 298 299 300 301 302 303 304 305 305 306 306 307 307 307 307 308 307 307 307 307 307 306
252 256 259 263 266 269 272 275 277 279 281 283 284 286 288 289 291 292 294 295 297 298 299 300 301 302 303 304 305 306 306 307 307 307 307 308 308 308 308 308 307 307 306 305
256 259 262 265 267 270 273 276 278 280 281 283 285 287 288 290 292 293 295 296 298 299 300 301 302 303 304 306 306 307 307 308 308 308 308 308 308 308 308 308 308 307 306 305
259 261 264 266 269 272 275 277 279 281 282 284 286 288 290 291 293 294 296 298 299 300 302 303 304 305 306 307 307 308 308 308 309 309 309 309 309 309 309 308 308 307 306 305
261 262 264 267 270 273 275 277 279 281 283 285 287 289 291 293 294 296 298 299 301 302 303 304 305 306 307 308 308 309 309 309 309 310 309 309 309 309 309 309 308 308 307 306
261 263 266 269 271 273 275 277 279 282 284 286 288 291 293 294 296 298 300 301 302 304 305 306 307 308 308 309 309 309 310 310 310 310 310 310 310 310 309 308 308 307 306 306
263 265 267 269 271 274 276 279 281 284 286 289 291 293 295 297 299 300 302 304 305 306 307 308 308 309 309 309 310 310 310 311 311 312 312 312 312 312 311 309 308 307 306 306
264 266 268 270 272 275 278 281 284 287 289 292 294 296 298 300 302 303 305 306 307 308 308 308 309 309 310 310 311 311 311 312 313 313 314 314 314 314 313 312 310 308 307 307